Location: Bad Salzschlirf
(50.3750°N, 9.3000°E)
Time: 20:54:00
(UTC+02:00)

ISS - Visible Passes

Search period start: 25 September 2017 00:00
Search period end: 05 October 2017 00:00
Orbit: 401 x 407 km, 51.6° (Epoch: 26 September)

Date Brightness Start Highest point End Pass type
(mag) Time Alt. Az. Time Alt. Az. Time Alt. Az.
25 Sep -1.1 21:19:16 10° SSW 21:19:30 11° SSW 21:19:30 11° SSW visible
26 Sep -2.1 20:27:39 10° S 20:29:51 18° SE 20:29:51 18° SE visible
27 Sep -2.7 21:10:32 10° SW 21:12:41 34° SSW 21:12:41 34° SSW visible
28 Sep -2.9 20:18:29 10° SSW 20:21:27 32° SSE 20:22:41 24° ESE visible
28 Sep -1.1 21:54:27 10° W 21:55:20 17° W 21:55:20 17° W visible
29 Sep -3.9 21:02:04 10° WSW 21:05:12 75° SSW 21:05:12 75° SSW visible
30 Sep -3.6 20:09:47 10° SW 20:12:59 55° SSE 20:14:57 21° E visible
30 Sep -1.5 21:46:10 10° W 21:47:36 23° W 21:47:36 23° W visible
01 Oct -3.9 20:53:43 10° W 20:57:00 78° N 20:57:16 71° NE visible
02 Oct -3.9 20:01:18 10° WSW 20:04:34 85° SSE 20:06:53 18° ENE visible
02 Oct -1.7 21:37:52 10° W 21:39:31 27° WNW 21:39:31 27° WNW visible
03 Oct -3.7 20:45:23 10° W 20:48:39 68° N 20:49:05 58° NE visible
04 Oct -3.7 19:52:53 10° W 19:56:10 74° N 19:58:37 17° ENE visible
04 Oct -1.8 21:29:28 10° WNW 21:31:15 29° WNW 21:31:15 29° WNW visible
